EW7785 Skudeneshavn NO current weather conditions

sailwx.info

Wind from 177 at 10 knots gusting 16

Air temperature 17.8° C
Dewpoint 15.6° C

Last reported at 2020-Aug-07 18:05 UTC.
Time now 2020-Aug-07 18:30 UTC

Location: N 59°09' E 005°13'.
View on Google Maps.

See reports from other nearby stations

  
Tides and Currents Weather Stations Pressure Air Temp Water Temp Dewpoint Dewpoint Depression Visibility Wind Speed Wind Dir Waves Ship Positions
date/time (UTC)wind fromknots sea level pressurealtimeterstation pressurevisibilityair tempwater tempwave heightnotes
2020-Aug-07 18:05 177 10 gusting 16 17.8
2020-Aug-07 18:00 177 10 gusting 16 17.8
2020-Aug-07 17:55 176 11 gusting 16 17.8
2020-Aug-07 17:50 178 11 gusting 16 17.8
2020-Aug-07 17:45 177 11 gusting 17 17.8
2020-Aug-07 17:40 175 12 gusting 20 17.8
2020-Aug-07 17:35 176 12 gusting 20 17.8
2020-Aug-07 17:30 177 13 gusting 18 17.8
2020-Aug-07 17:25 176 13 gusting 19 17.8
2020-Aug-07 17:20 174 14 gusting 19 17.8
2020-Aug-07 17:15 175 14 gusting 20 18.3
2020-Aug-07 17:10 177 14 gusting 20 18.3
2020-Aug-07 17:05 177 14 gusting 20 18.3
2020-Aug-07 17:00 176 14 gusting 20 18.3
2020-Aug-07 16:55 176 14 gusting 20 18.3
2020-Aug-07 16:50 175 14 gusting 25 18.3
2020-Aug-07 16:45 175 14 gusting 25 18.3
2020-Aug-07 16:40 176 14 gusting 21 18.3
2020-Aug-07 16:35 174 15 gusting 22 18.3
2020-Aug-07 16:30 172 16 gusting 22 18.3
2020-Aug-07 16:25 172 15 gusting 21 18.3
2020-Aug-07 16:20 172 16 gusting 21 18.3
2020-Aug-07 16:15 172 16 gusting 22 18.3
2020-Aug-07 16:10 173 16 gusting 22 18.3
2020-Aug-07 16:05 174 15 gusting 25 18.3
2020-Aug-07 16:00 173 16 gusting 25 18.3
2020-Aug-07 15:55 174 16 gusting 22 18.3
2020-Aug-07 15:50 175 16 gusting 24 18.3
2020-Aug-07 15:45 175 15 gusting 24 18.3
2020-Aug-07 15:40 173 14 gusting 20 18.3
2020-Aug-07 15:35 170 14 gusting 25 18.3
2020-Aug-07 15:30 167 16 gusting 25 18.3
2020-Aug-07 15:25 168 15 gusting 21 18.3
2020-Aug-07 15:20 169 15 gusting 20 18.3
2020-Aug-07 15:10 170 16 gusting 24 18.3
2020-Aug-07 15:05 169 16 gusting 24 18.3
2020-Aug-07 15:00 168 16 gusting 24 18.3
2020-Aug-07 14:55 169 16 gusting 24 18.3
2020-Aug-07 14:50 171 15 gusting 24 17.8
2020-Aug-07 14:45 174 14 gusting 24 18.3
2020-Aug-07 14:40 175 14 gusting 20 17.8
2020-Aug-07 14:35 175 14 gusting 24 17.8
2020-Aug-07 14:30 173 15 gusting 24 17.8
2020-Aug-07 14:25 171 15 gusting 22 17.8
2020-Aug-07 14:20 172 15 gusting 21 17.8
2020-Aug-07 14:15 172 15 gusting 21 17.8
2020-Aug-07 14:10 171 15 gusting 25 17.8
2020-Aug-07 14:05 171 15 gusting 25 17.8
2020-Aug-07 14:00 172 15 gusting 22 17.8
2020-Aug-07 13:55 173 16 gusting 22 17.8
2020-Aug-07 13:50 174 16 gusting 24 17.8
2020-Aug-07 13:45 174 16 gusting 24 17.8
2020-Aug-07 13:40 173 16 gusting 25 17.8
2020-Aug-07 13:35 173 16 gusting 25 17.8
2020-Aug-07 13:30 175 16 gusting 24 17.8
2020-Aug-07 13:25 175 16 gusting 24 17.8
2020-Aug-07 13:20 174 15 gusting 22 17.8
2020-Aug-07 13:15 177 15 gusting 25 18.3
2020-Aug-07 13:10 176 16 gusting 25 18.3
2020-Aug-07 13:05 175 16 gusting 22 18.3
2020-Aug-07 13:00 176 16 gusting 24 18.3
2020-Aug-07 12:55 175 16 gusting 25 18.3
2020-Aug-07 12:50 177 16 gusting 25 18.3
2020-Aug-07 12:45 177 16 gusting 25 18.3
2020-Aug-07 12:40 176 16 gusting 25 18.3
2020-Aug-07 12:35 177 16 gusting 25 18.3
2020-Aug-07 12:30 177 16 gusting 25 18.3
2020-Aug-07 12:25 175 15 gusting 22 18.3
2020-Aug-07 12:20 173 14 gusting 22 18.3
2020-Aug-07 12:15 173 13 gusting 20 17.8
2020-Aug-07 12:10 172 13 gusting 19 17.8
2020-Aug-07 12:05 171 13 gusting 18 17.8
2020-Aug-07 12:00 171 13 gusting 21 17.8
2020-Aug-07 11:55 170 14 gusting 21 17.8
2020-Aug-07 11:50 170 15 gusting 21 17.8
2020-Aug-07 11:45 169 14 gusting 21 17.8
2020-Aug-07 11:40 169 14 gusting 21 17.8
2020-Aug-07 11:35 168 14 gusting 21 17.8
2020-Aug-07 11:25 167 14 gusting 19 17.8
2020-Aug-07 11:20 166 15 gusting 20 17.2
2020-Aug-07 11:15 166 15 gusting 20 17.2
2020-Aug-07 11:10 167 15 gusting 21 17.2
2020-Aug-07 11:05 168 14 gusting 21 17.2
2020-Aug-07 11:00 172 13 gusting 21 17.2
2020-Aug-07 10:55 174 12 gusting 19 17.2
2020-Aug-07 10:50 173 12 gusting 19 17.2
2020-Aug-07 10:45 173 12 gusting 17 17.2
2020-Aug-07 10:40 173 13 gusting 18 17.2
2020-Aug-07 10:35 171 13 gusting 18 17.2
2020-Aug-07 10:30 168 12 gusting 17 17.2
2020-Aug-07 10:25 168 11 gusting 16 17.2
2020-Aug-07 10:20 169 11 gusting 17 17.2
2020-Aug-07 10:15 169 10 gusting 17 17.2
2020-Aug-07 10:10 167 10 gusting 13 17.2
2020-Aug-07 10:05 164 11 gusting 16 17.2
2020-Aug-07 10:00 164 10 gusting 16 17.2
2020-Aug-07 09:55 165 10 gusting 15 17.2
2020-Aug-07 09:50 167 10 gusting 13 17.2
2020-Aug-07 09:45 168 10 gusting 14 17.2
2020-Aug-07 09:40 163 10 gusting 14 16.7
2020-Aug-07 09:35 159 10 gusting 14 16.7
2020-Aug-07 09:30 157 10 gusting 15 16.7
2020-Aug-07 09:25 157 11 gusting 15 16.7
2020-Aug-07 09:20 158 11 gusting 16 16.7
2020-Aug-07 09:15 158 11 gusting 16 16.7
2020-Aug-07 09:10 159 12 gusting 16 16.7
2020-Aug-07 09:05 157 12 gusting 16 16.7
2020-Aug-07 09:00 156 13 gusting 16 16.7
2020-Aug-07 08:55 156 13 gusting 16 16.7
2020-Aug-07 08:50 156 13 gusting 16 16.7
2020-Aug-07 08:45 156 13 gusting 16 16.7
2020-Aug-07 08:40 156 14 gusting 17 16.7
2020-Aug-07 08:35 156 15 gusting 21 16.7
2020-Aug-07 08:30 153 16 gusting 21 17.2
2020-Aug-07 08:25 149 16 gusting 22 17.2
2020-Aug-07 08:20 150 16 gusting 22 17.2
2020-Aug-07 08:15 150 17 gusting 24 17.2
2020-Aug-07 08:10 147 18 gusting 24 17.2
2020-Aug-07 08:05 146 18 gusting 22 17.2
2020-Aug-07 08:00 146 18 gusting 22 16.7
2020-Aug-07 07:55 148 19 gusting 24 16.7
2020-Aug-07 07:50 155 19 gusting 25 16.7
2020-Aug-07 07:45 160 19 gusting 25 16.7
2020-Aug-07 07:40 162 18 gusting 24 16.7
2020-Aug-07 07:35 162 17 gusting 24 16.7
2020-Aug-07 07:30 162 17 gusting 26 16.7
2020-Aug-07 07:25 162 18 gusting 26 16.7
2020-Aug-07 07:20 162 19 gusting 26 16.7
2020-Aug-07 07:15 163 19 gusting 26 16.7
2020-Aug-07 07:10 164 18 gusting 26 16.7
2020-Aug-07 07:05 167 17 gusting 25 16.7
2020-Aug-07 07:00 169 17 gusting 25 16.7
2020-Aug-07 06:55 168 16 gusting 25 16.7
2020-Aug-07 06:50 168 15 gusting 22 16.7
2020-Aug-07 06:45 168 15 gusting 22 16.7
2020-Aug-07 06:40 166 16 gusting 25 16.7
2020-Aug-07 06:35 166 17 gusting 25 16.7
2020-Aug-07 06:30 170 16 gusting 25 16.7
2020-Aug-07 06:25 171 15 gusting 24 16.7
2020-Aug-07 06:20 170 14 gusting 20 16.7
2020-Aug-07 06:15 168 15 gusting 21 16.7
2020-Aug-07 06:10 168 15 gusting 21 16.7
2020-Aug-07 06:05 168 15 gusting 21 16.7
2020-Aug-07 06:00 167 15 gusting 21 16.7
2020-Aug-07 05:55 168 15 gusting 21 16.7
2020-Aug-07 05:50 169 15 gusting 21 16.7
2020-Aug-07 05:45 168 15 gusting 21 16.7
2020-Aug-07 05:40 169 15 gusting 22 16.7
2020-Aug-07 05:35 169 15 gusting 22 16.7
2020-Aug-07 05:30 169 15 gusting 21 16.7
2020-Aug-07 05:25 168 14 gusting 20 16.7
2020-Aug-07 05:20 168 13 gusting 18 16.7
2020-Aug-07 05:15 168 14 gusting 20 16.7
2020-Aug-07 05:10 168 14 gusting 20 16.7
2020-Aug-07 05:05 168 14 gusting 20 16.7
2020-Aug-07 05:00 164 15 gusting 20 16.7
2020-Aug-07 04:55 164 14 gusting 19 16.7
2020-Aug-07 04:50 163 13 gusting 19 16.7
2020-Aug-07 04:45 159 13 gusting 19 16.7
2020-Aug-07 04:40 156 13 gusting 16 16.7
2020-Aug-07 04:35 153 12 gusting 15 16.7
2020-Aug-07 04:30 150 12 gusting 15 16.7
2020-Aug-07 04:25 147 12 gusting 14 16.7
2020-Aug-07 04:20 147 12 gusting 15 16.7
2020-Aug-07 04:15 143 11 gusting 15 16.7
2020-Aug-07 04:10 137 11 gusting 15 16.7
2020-Aug-07 04:05 135 10 gusting 13 16.7
2020-Aug-07 04:00 131 9 gusting 12 16.7
2020-Aug-07 03:55 129 9 gusting 11 16.7
2020-Aug-07 03:50 133 9 gusting 11 16.7
2020-Aug-07 03:45 135 9 gusting 11 16.7
2020-Aug-07 03:40 136 9 gusting 12 16.7
2020-Aug-07 03:35 136 9 gusting 12 16.7
2020-Aug-07 03:30 134 8 gusting 10 16.7
2020-Aug-07 03:25 131 8 gusting 10 16.7
2020-Aug-07 03:20 135 8 gusting 10 16.7
2020-Aug-07 03:15 145 9 gusting 11 16.7
2020-Aug-07 03:10 152 9 gusting 11 16.7
2020-Aug-07 03:05 155 9 gusting 13 16.7
2020-Aug-07 03:00 159 10 gusting 13 16.7
2020-Aug-07 02:55 164 9 gusting 13 16.7
2020-Aug-07 02:50 167 9 gusting 13 16.7
2020-Aug-07 02:45 166 9 gusting 13 16.7
2020-Aug-07 02:40 163 10 gusting 15 16.7
2020-Aug-07 02:35 162 11 gusting 15 16.7
2020-Aug-07 02:30 162 10 gusting 15 16.7
2020-Aug-07 02:25 165 10 gusting 14 16.7
2020-Aug-07 02:20 165 11 gusting 15 16.7
2020-Aug-07 02:15 162 12 gusting 16 16.7
2020-Aug-07 02:10 163 13 gusting 16 16.7
2020-Aug-07 02:05 166 12 gusting 17 16.7
2020-Aug-07 02:00 168 11 gusting 17 16.7
2020-Aug-07 01:55 171 11 gusting 15 16.7
2020-Aug-07 01:50 173 11 gusting 15 16.7
2020-Aug-07 01:45 173 11 gusting 15 16.7
2020-Aug-07 01:40 173 11 gusting 15 16.7
2020-Aug-07 01:35 174 11 gusting 15 16.7
2020-Aug-07 01:30 175 11 gusting 16 16.7
2020-Aug-07 01:25 176 11 gusting 16 16.7
2020-Aug-07 01:20 181 11 gusting 17 16.7
2020-Aug-07 01:15 182 11 gusting 17 16.7
2020-Aug-07 01:10 181 10 gusting 15 16.7
2020-Aug-07 01:05 182 10 gusting 16 16.7
2020-Aug-07 01:00 183 10 gusting 16 16.7
2020-Aug-07 00:55 183 10 gusting 15 16.7
2020-Aug-07 00:50 184 10 gusting 14 16.7
2020-Aug-07 00:45 187 9 gusting 14 16.7
2020-Aug-07 00:40 189 10 gusting 14 16.7
2020-Aug-07 00:35 191 11 gusting 16 16.7
2020-Aug-07 00:30 190 11 gusting 16 16.7
2020-Aug-07 00:25 189 10 gusting 15 16.7
2020-Aug-07 00:20 189 10 gusting 15 16.7
2020-Aug-07 00:15 189 10 gusting 14 16.7
2020-Aug-07 00:10 190 10 gusting 15 16.7
2020-Aug-07 00:05 189 10 gusting 17 16.7
2020-Aug-06 23:55 188 10 gusting 14 16.7
2020-Aug-06 23:50 185 10 gusting 14 16.7
2020-Aug-06 23:45 186 10 gusting 14 16.7
2020-Aug-06 23:40 187 10 gusting 15 16.7
2020-Aug-06 23:35 185 9 gusting 15 16.7
2020-Aug-06 23:30 182 9 gusting 14 16.7
2020-Aug-06 23:25 178 10 gusting 14 16.7
2020-Aug-06 23:20 176 10 gusting 13 16.7
2020-Aug-06 23:15 175 9 gusting 13 16.7
2020-Aug-06 23:10 175 8 gusting 12 16.7
2020-Aug-06 23:05 177 8 gusting 13 16.7
2020-Aug-06 23:00 176 9 gusting 13 16.7
2020-Aug-06 22:55 176 8 gusting 12 16.7
2020-Aug-06 22:50 175 8 gusting 12 16.7
2020-Aug-06 22:45 172 8 gusting 12 16.7
2020-Aug-06 22:40 171 8 gusting 12 16.7
2020-Aug-06 22:35 171 8 gusting 12 16.7
2020-Aug-06 22:30 171 9 gusting 14 16.7
2020-Aug-06 22:25 172 10 gusting 14 16.7
2020-Aug-06 22:20 171 9 gusting 13 16.7
2020-Aug-06 22:15 169 10 gusting 14 16.7
2020-Aug-06 22:10 169 11 gusting 14 16.7
2020-Aug-06 22:05 169 10 gusting 14 16.7
2020-Aug-06 22:00 171 10 gusting 14 16.7
2020-Aug-06 21:55 175 10 gusting 15 16.7
2020-Aug-06 21:50 175 10 gusting 15 16.7
2020-Aug-06 21:45 176 11 gusting 15 16.7
2020-Aug-06 21:40 178 11 gusting 16 16.7
2020-Aug-06 21:35 179 11 gusting 16 16.7
2020-Aug-06 21:25 175 12 gusting 17 16.7
2020-Aug-06 21:20 170 12 gusting 17 16.7
2020-Aug-06 21:15 168 12 gusting 18 16.7
2020-Aug-06 21:10 168 12 gusting 18 16.7
2020-Aug-06 21:05 167 12 gusting 18 16.7
2020-Aug-06 21:00 166 12 gusting 18 16.7
2020-Aug-06 20:55 166 13 gusting 19 16.7
2020-Aug-06 20:50 168 13 gusting 19 16.7
2020-Aug-06 20:45 168 13 gusting 19 16.7
2020-Aug-06 20:40 169 12 gusting 19 16.7
2020-Aug-06 20:35 168 13 gusting 19 16.7
2020-Aug-06 20:30 169 13 gusting 19 16.7
2020-Aug-06 20:25 169 13 gusting 19 16.7
2020-Aug-06 20:20 168 14 gusting 20 16.7
2020-Aug-06 20:15 169 14 gusting 21 16.7
2020-Aug-06 20:10 168 14 gusting 21 16.7
2020-Aug-06 20:05 170 13 gusting 20 16.7
2020-Aug-06 20:00 172 12 gusting 20 16.7
2020-Aug-06 19:55 173 12 gusting 16 16.7
2020-Aug-06 19:50 172 12 gusting 16 16.7
2020-Aug-06 19:45 172 12 gusting 17 16.7
2020-Aug-06 19:40 170 13 gusting 19 16.7
2020-Aug-06 19:35 169 13 gusting 21 16.7
2020-Aug-06 19:30 170 13 gusting 21 16.7
2020-Aug-06 19:25 171 12 gusting 18 16.7
2020-Aug-06 19:20 173 12 gusting 16 16.7
2020-Aug-06 19:15 172 12 gusting 18 16.7
2020-Aug-06 19:10 168 12 gusting 19 16.7
2020-Aug-06 19:05 167 13 gusting 19 16.7
2020-Aug-06 19:00 166 13 gusting 19 16.7
2020-Aug-06 18:55 167 13 gusting 19 16.7
2020-Aug-06 18:50 167 12 gusting 19 16.7
2020-Aug-06 18:45 169 11 gusting 17 16.7
2020-Aug-06 18:40 173 11 gusting 17 16.7
2020-Aug-06 18:35 172 11 gusting 16 16.7
2020-Aug-06 18:30 168 12 gusting 17 16.7
2020-Aug-06 18:25 169 12 gusting 18 16.7
2020-Aug-06 18:20 174 13 gusting 18 16.7
2020-Aug-06 18:15 177 13 gusting 19 16.7
2020-Aug-06 18:10 175 13 gusting 19 16.7
2020-Aug-06 18:05 176 12 gusting 18 16.7
2020-Aug-06 18:00 176 12 gusting 20 16.7
2020-Aug-06 17:55 175 13 gusting 20 16.7
2020-Aug-06 17:50 176 12 gusting 19 16.7
2020-Aug-06 17:45 177 12 gusting 20 16.7
2020-Aug-06 17:40 179 12 gusting 20 16.7
2020-Aug-06 17:35 181 12 gusting 20 16.7
2020-Aug-06 17:30 183 12 gusting 19 16.7
2020-Aug-06 17:25 183 11 gusting 17 16.7
2020-Aug-06 17:20 185 11 gusting 19 16.7
2020-Aug-06 17:15 188 12 gusting 19 16.7
2020-Aug-06 17:10 188 13 gusting 20 16.7
2020-Aug-06 17:05 188 13 gusting 20 17.2
2020-Aug-06 17:00 189 14 gusting 21 17.2
2020-Aug-06 16:55 189 13 gusting 21 17.2
2020-Aug-06 16:50 190 13 gusting 20 17.2
2020-Aug-06 16:45 189 13 gusting 20 17.2
2020-Aug-06 16:40 188 12 gusting 18 17.2
2020-Aug-06 16:35 188 12 gusting 17 17.2
2020-Aug-06 16:30 188 12 gusting 20 17.2
2020-Aug-06 16:25 187 12 gusting 20 17.2
2020-Aug-06 16:20 185 11 gusting 19 17.2
2020-Aug-06 16:15 183 11 gusting 19 17.2
2020-Aug-06 16:10 186 11 gusting 19 17.2
2020-Aug-06 16:05 189 12 gusting 18 17.2
2020-Aug-06 16:00 188 12 gusting 19 17.2
2020-Aug-06 15:55 183 11 gusting 19 17.2
2020-Aug-06 15:50 183 11 gusting 19 17.2
2020-Aug-06 15:45 187 11 gusting 19 17.2
2020-Aug-06 15:40 189 11 gusting 16 17.2
2020-Aug-06 15:35 190 11 gusting 17 17.2
2020-Aug-06 15:30 191 12 gusting 17 17.2
2020-Aug-06 15:25 189 11 gusting 16 17.2
2020-Aug-06 15:20 188 11 gusting 18 17.2
2020-Aug-06 15:15 190 12 gusting 19 17.2
2020-Aug-06 15:10 192 13 gusting 19 17.2
2020-Aug-06 15:05 191 12 gusting 18 17.2
2020-Aug-06 14:55 189 13 gusting 19 17.2
2020-Aug-06 14:50 190 13 gusting 19 17.2
2020-Aug-06 14:45 189 13 gusting 19 17.2
2020-Aug-06 14:40 189 14 gusting 21 17.2
2020-Aug-06 14:35 189 14 gusting 21 17.2
2020-Aug-06 14:30 191 14 gusting 20 17.2
2020-Aug-06 14:25 192 14 gusting 21 17.2
2020-Aug-06 14:20 192 15 gusting 21 17.2
2020-Aug-06 14:15 191 15 gusting 20 17.8
2020-Aug-06 14:10 191 15 gusting 24 17.8
2020-Aug-06 14:05 191 15 gusting 24 17.8
2020-Aug-06 14:00 191 15 gusting 21 17.8
2020-Aug-06 13:55 192 14 gusting 19 17.8
2020-Aug-06 13:50 190 13 gusting 19 17.8
2020-Aug-06 13:45 190 13 gusting 19 17.8
2020-Aug-06 13:40 192 13 gusting 19 17.8
2020-Aug-06 13:35 194 13 gusting 18 17.2
2020-Aug-06 13:30 192 14 gusting 20 17.8
2020-Aug-06 13:25 191 15 gusting 20 17.8
2020-Aug-06 13:20 192 15 gusting 20 17.8
2020-Aug-06 13:15 190 15 gusting 22 17.8
2020-Aug-06 13:10 189 15 gusting 26 17.8
2020-Aug-06 13:05 191 16 gusting 26 17.8
2020-Aug-06 13:00 191 16 gusting 24 17.8
2020-Aug-06 12:55 190 14 gusting 22 17.8
2020-Aug-06 12:50 189 13 gusting 19 17.8
2020-Aug-06 12:45 190 13 gusting 19 17.8
2020-Aug-06 12:40 187 11 gusting 18 17.8
2020-Aug-06 12:35 185 10 gusting 14 17.8
2020-Aug-06 12:30 184 10 gusting 14 17.8
2020-Aug-06 12:25 183 11 gusting 18 17.8
2020-Aug-06 12:20 178 12 gusting 18 17.2
2020-Aug-06 12:15 178 11 gusting 16 17.2
2020-Aug-06 12:10 177 11 gusting 14 17.2
2020-Aug-06 12:05 172 10 gusting 14 17.2
2020-Aug-06 12:00 166 8 gusting 13 17.2
2020-Aug-06 11:55 154 6 gusting 10 17.2
2020-Aug-06 11:50 148 8 gusting 11 17.2
2020-Aug-06 11:45 151 9 gusting 14 17.2
2020-Aug-06 11:40 156 9 gusting 14 17.2
2020-Aug-06 11:35 159 9 gusting 11 17.2
2020-Aug-06 11:30 158 10 gusting 14 17.2
2020-Aug-06 11:25 151 11 gusting 14 17.2
2020-Aug-06 11:20 144 9 gusting 13 17.2
2020-Aug-06 11:10 138 10 gusting 14 17.2
2020-Aug-06 11:05 140 9 gusting 12 17.2
2020-Aug-06 11:00 147 10 gusting 13 16.7
2020-Aug-06 10:55 150 10 gusting 13 16.7
2020-Aug-06 10:50 149 11 gusting 14 16.7
2020-Aug-06 10:45 149 11 gusting 14 16.7
2020-Aug-06 10:40 149 9 gusting 13 16.7
2020-Aug-06 10:35 152 8 gusting 10 16.7
2020-Aug-06 10:30 160 6 gusting 10 16.7
2020-Aug-06 10:25 173 6 gusting 9 16.7
2020-Aug-06 10:20 169 6 gusting 9 17.2
2020-Aug-06 10:15 160 6 gusting 9 16.7
2020-Aug-06 10:10 160 6 gusting 9 17.2
2020-Aug-06 10:05 150 6 gusting 10 17.2
2020-Aug-06 10:00 138 6 gusting 10 17.8
2020-Aug-06 09:55 129 6 gusting 10 17.8
2020-Aug-06 09:50 119 6 gusting 9 17.8
2020-Aug-06 09:45 115 8 gusting 11 17.8
2020-Aug-06 09:40 116 9 gusting 12 17.8
2020-Aug-06 09:35 114 9 gusting 12 17.8
2020-Aug-06 09:30 114 6 gusting 10 17.8
2020-Aug-06 09:25 115 6 gusting 10 17.8
2020-Aug-06 09:20 112 8 gusting 11 17.2
2020-Aug-06 09:15 108 9 gusting 12 17.2
2020-Aug-06 09:10 105 9 gusting 12 17.2
2020-Aug-06 09:05 107 9 gusting 12 17.2
2020-Aug-06 09:00 107 8 gusting 10 17.2
2020-Aug-06 08:50 100 8 gusting 11 17.2
2020-Aug-06 08:45 099 9 gusting 12 16.7
2020-Aug-06 08:40 101 8 gusting 12 16.7
2020-Aug-06 08:35 102 8 gusting 10 16.7
2020-Aug-06 08:30 106 6 gusting 10 16.7
2020-Aug-06 08:25 109 6 gusting 8 16.7
2020-Aug-06 08:20 114 5 gusting 8 16.7
2020-Aug-06 08:15 119 5 gusting 6 16.7
2020-Aug-06 08:10 118 5 gusting 8 16.7
2020-Aug-06 08:05 118 5 gusting 8 16.1
2020-Aug-06 08:00 116 6 gusting 9 16.1
2020-Aug-06 07:55 111 6 gusting 9 16.1
2020-Aug-06 07:45 118 6 gusting 8 16.1
2020-Aug-06 07:40 128 6 gusting 10 16.1
2020-Aug-06 07:35 133 8 gusting 11 16.1
2020-Aug-06 07:30 137 9 gusting 12 16.1
2020-Aug-06 07:25 142 11 gusting 14 16.1
2020-Aug-06 07:20 146 12 gusting 16 16.1
2020-Aug-06 07:15 147 13 gusting 18 16.1
2020-Aug-06 07:10 151 14 gusting 19 16.1
2020-Aug-06 07:05 152 14 gusting 19 16.1
2020-Aug-06 07:00 146 14 gusting 18 16.1
2020-Aug-06 06:55 145 15 gusting 18 16.1
2020-Aug-06 06:50 145 14 gusting 18 16.1
2020-Aug-06 06:45 145 13 gusting 18 16.1
2020-Aug-06 06:40 149 12 gusting 16 16.1
2020-Aug-06 06:35 153 12 gusting 18 16.1
2020-Aug-06 06:30 152 13 gusting 18 16.1
2020-Aug-06 06:25 150 14 gusting 17 16.1
2020-Aug-06 06:20 152 13 gusting 17 16.1
2020-Aug-06 06:15 158 11 gusting 15 16.1
2020-Aug-06 06:10 161 11 gusting 15 16.1
2020-Aug-06 06:05 162 10 gusting 14 16.1
2020-Aug-06 06:00 166 10 gusting 15 16.1
2020-Aug-06 05:55 167 10 gusting 15 16.1
2020-Aug-06 05:50 166 10 gusting 15 16.1
2020-Aug-06 05:45 167 10 gusting 15 16.1
2020-Aug-06 05:40 167 11 gusting 16 16.1
2020-Aug-06 05:35 167 12 gusting 17 16.1
2020-Aug-06 05:30 170 11 gusting 17 16.1
2020-Aug-06 05:25 172 11 gusting 16 16.1
2020-Aug-06 05:20 173 11 gusting 15 16.1
2020-Aug-06 05:15 173 11 gusting 15 16.1
2020-Aug-06 05:10 172 11 gusting 19 16.1
2020-Aug-06 05:05 172 11 gusting 19 16.1
2020-Aug-06 05:00 174 11 gusting 16 16.1
2020-Aug-06 04:55 175 11 gusting 18 16.1
2020-Aug-06 04:50 175 12 gusting 18 16.1
2020-Aug-06 04:45 177 13 gusting 19 16.1
2020-Aug-06 04:40 176 13 gusting 19 16.1
2020-Aug-06 04:35 175 13 gusting 19 16.1
2020-Aug-06 04:30 175 13 gusting 19 16.1
2020-Aug-06 04:25 175 12 gusting 20 15.6
2020-Aug-06 04:20 176 12 gusting 20 15.6
2020-Aug-06 04:15 177 12 gusting 19 15.6
2020-Aug-06 04:10 177 13 gusting 19 15.6
2020-Aug-06 04:05 177 13 gusting 19 15.6
2020-Aug-06 04:00 176 12 gusting 17 15.6
2020-Aug-06 03:55 175 13 gusting 18 15.6
2020-Aug-06 03:50 177 12 gusting 18 15.6
2020-Aug-06 03:45 178 12 gusting 16 15.6
2020-Aug-06 03:40 177 11 gusting 16 15.6
2020-Aug-06 03:35 175 12 gusting 19 15.6
2020-Aug-06 03:30 174 13 gusting 19 15.6
2020-Aug-06 03:25 175 13 gusting 19 15.6
2020-Aug-06 03:20 175 13 gusting 19 15.6
2020-Aug-06 03:15 174 12 gusting 18 15.6
2020-Aug-06 03:10 172 12 gusting 19 15.6
2020-Aug-06 03:05 170 13 gusting 19 15.6
2020-Aug-06 02:55 171 13 gusting 19 15.6
2020-Aug-06 02:50 171 13 gusting 22 15.6
2020-Aug-06 02:40 169 14 gusting 21 15.6
2020-Aug-06 02:35 171 14 gusting 19 15.6
2020-Aug-06 02:30 172 14 gusting 19 15.6
2020-Aug-06 02:25 171 13 gusting 21 15.6
2020-Aug-06 02:20 172 14 gusting 21 15.6
2020-Aug-06 02:15 174 13 gusting 20 15.6
2020-Aug-06 02:10 175 13 gusting 18 15.6
2020-Aug-06 02:05 174 13 gusting 18 15.6
2020-Aug-06 02:00 170 13 gusting 18 15.6
2020-Aug-06 01:55 167 13 gusting 18 15.6
2020-Aug-06 01:50 168 13 gusting 18 15.6
2020-Aug-06 01:45 169 13 gusting 19 15.6
2020-Aug-06 01:40 171 12 gusting 19 15.6
2020-Aug-06 01:35 172 12 gusting 18 15.6
2020-Aug-06 01:30 174 13 gusting 18 15.6
2020-Aug-06 01:25 177 13 gusting 18 15.6
2020-Aug-06 01:20 178 13 gusting 17 15.6
2020-Aug-06 01:15 178 12 gusting 18 15.6
2020-Aug-06 01:10 177 13 gusting 20 15.6
2020-Aug-06 01:05 176 13 gusting 20 15.6
2020-Aug-06 01:00 174 13 gusting 18 15.6
2020-Aug-06 00:55 174 13 gusting 20 15.6
2020-Aug-06 00:50 174 14 gusting 20 15.6
2020-Aug-06 00:45 173 14 gusting 21 15.6
2020-Aug-06 00:40 172 14 gusting 21 15.6
2020-Aug-06 00:35 170 15 gusting 20 15.6
2020-Aug-06 00:30 168 15 gusting 20 15.6
2020-Aug-06 00:25 169 15 gusting 20 15.6
2020-Aug-06 00:20 169 15 gusting 22 15.6
2020-Aug-06 00:15 169 15 gusting 22 15.6
2020-Aug-06 00:10 170 14 gusting 20 15.6
2020-Aug-06 00:05 169 14 gusting 20 15.6
2020-Aug-06 00:00 169 14 gusting 20 15.6
2020-Aug-05 23:55 170 13 gusting 19 15.6
2020-Aug-05 23:50 169 14 gusting 19 15.6
2020-Aug-05 23:45 169 14 gusting 20 15.6
2020-Aug-05 23:40 169 14 gusting 20 15.6
2020-Aug-05 23:35 169 14 gusting 19 15.6
2020-Aug-05 23:30 170 13 gusting 18 15.6
2020-Aug-05 23:25 170 13 gusting 19 15.6
2020-Aug-05 23:20 170 12 gusting 19 15.6
2020-Aug-05 23:15 170 12 gusting 17 15.6
2020-Aug-05 23:10 168 12 gusting 17 15.6
2020-Aug-05 23:05 166 13 gusting 17 15.6
2020-Aug-05 23:00 164 13 gusting 20 15.6
2020-Aug-05 22:55 164 14 gusting 20 15.6
2020-Aug-05 22:50 165 14 gusting 18 15.6
2020-Aug-05 22:45 165 13 gusting 18 15.6
2020-Aug-05 22:40 165 13 gusting 17 15.6
2020-Aug-05 22:35 166 12 gusting 18 15.6
2020-Aug-05 22:30 167 12 gusting 18 15.6
2020-Aug-05 22:25 166 13 gusting 19 15.6
2020-Aug-05 22:20 165 13 gusting 19 15.6
2020-Aug-05 22:15 165 13 gusting 20 15.6
2020-Aug-05 22:10 166 13 gusting 20 15.6
2020-Aug-05 22:05 168 13 gusting 19 15.6
2020-Aug-05 22:00 170 13 gusting 18 15.6
2020-Aug-05 21:55 170 13 gusting 18 15.6
2020-Aug-05 21:50 171 12 gusting 18 15.6
2020-Aug-05 21:45 173 12 gusting 18 15.6
2020-Aug-05 21:40 173 12 gusting 19 15.6
2020-Aug-05 21:35 173 12 gusting 19 15.6
2020-Aug-05 21:30 172 12 gusting 19 15.6
2020-Aug-05 21:25 169 14 gusting 21 15.6
2020-Aug-05 21:20 169 15 gusting 21 15.6
2020-Aug-05 21:15 169 15 gusting 22 15.6
2020-Aug-05 21:10 167 15 gusting 22 15.6
2020-Aug-05 21:05 167 15 gusting 21 15.6
2020-Aug-05 21:00 166 15 gusting 22 15.6
2020-Aug-05 20:55 163 15 gusting 22 15.6
2020-Aug-05 20:50 163 15 gusting 21 15.6
2020-Aug-05 20:45 165 15 gusting 21 15.6
2020-Aug-05 20:40 167 15 gusting 20 15.6
2020-Aug-05 20:35 167 15 gusting 22 15.6
2020-Aug-05 20:25 166 14 gusting 21 15.6
2020-Aug-05 20:20 166 15 gusting 21 15.6
2020-Aug-05 20:15 166 16 gusting 22 15.6
2020-Aug-05 20:10 166 15 gusting 22 15.6
2020-Aug-05 20:05 168 15 gusting 20 15.6
2020-Aug-05 20:00 168 14 gusting 20 15.6
2020-Aug-05 19:55 169 13 gusting 19 15.6
2020-Aug-05 19:50 169 13 gusting 18 15.6
2020-Aug-05 19:45 168 12 gusting 18 15.6
2020-Aug-05 19:40 167 12 gusting 16 15.6
2020-Aug-05 19:35 169 11 gusting 16 15.6
2020-Aug-05 19:30 174 11 gusting 15 15.6
2020-Aug-05 19:25 176 11 gusting 17 15.6
2020-Aug-05 19:20 176 11 gusting 17 15.6
2020-Aug-05 19:15 176 10 gusting 15 15.6
2020-Aug-05 19:10 177 11 gusting 15 15.6
2020-Aug-05 19:05 177 11 gusting 15 15.6
2020-Aug-05 19:00 176 11 gusting 14 15.6
2020-Aug-05 18:55 176 10 gusting 17 15.6
2020-Aug-05 18:50 178 10 gusting 17 15.6
2020-Aug-05 18:45 182 9 gusting 14 15.6
2020-Aug-05 18:40 186 9 gusting 14 15.6
2020-Aug-05 18:35 189 10 gusting 15 15.6
2020-Aug-05 18:30 189 10 gusting 15 15.6
2020-Aug-05 18:25 187 10 gusting 15 15.6
2020-Aug-05 18:20 190 11 gusting 17 15.6
2020-Aug-05 18:15 192 12 gusting 17 15.6
2020-Aug-05 18:10 191 12 gusting 17 15.6
2020-Aug-05 18:05 191 12 gusting 17 15.6
2020-Aug-05 18:00 190 12 gusting 17 15.6